Zurück zum Katalog

FENGYUN 1C DEB

AktivPO
NORAD 31966·DEBRIS·🇨🇳 China

Gestartet May 10, 1999 von Taiyuan Satellite Launch Center

Loading…

Nächste Überflüge (nächste 24 Stunden)

TLE

AlterndSource: Space-Track

Epoche: Sep 9, 2026, 18:29 UTC

1 31966U 99025CNT 26252.77061359  .00004081  00000-0  64444-3 0  9993
2 31966  99.0367  78.8392 0082036 156.1202 204.3841 14.70776718697231

Verfolge FENGYUN 1C DEB in Echtzeit mit AllMySat

Download on the App Store